Location: Newark
(49.8969°N, 3.3422°E)
Time: 16:59:45
(UTC+00:00)

deb Explorer IX - Pass Details

Date: 26 January 2020
Orbit: 549 x 1099 km, 38.8° (Epoch: 21 February)

Event Time Altitude Azimuth Distance (km) Brightness Sun altitude
Rises 00:41:24 0° 260° (W) 3,893 - -57.9°
Reaches altitude 10° 00:44:29 10° 250° (WSW) 2,949 - -57.7°
Maximum altitude 00:50:38 30° 193° (SSW) 1,824 - -57.3°
Drops below altitude 10° 00:56:35 10° 135° (SE) 2,837 - -56.9°
Sets 00:59:30 0° 125° (SE) 3,723 - -56.7°
